Lockhart, AL

1:00 PM CDT on August 30, 2016 (GMT -0500)
Florala

Weather History for K0J4 - October, 2013

Change the Weather History Date:

Sunday, October 6, 2013

  Actual Average (KCEW) Record (KCEW)
Temperature  
Mean Temperature 74 °F -  
Max Temperature 79 °F 83 °F 94 °F (1951)
Min Temperature 69 °F 57 °F 39 °F (1979)
Cooling Degree Days 9    
Growing Degree Days 24 (Base 50)    
Moisture  
Dew Point 70 °F    
Average Humidity 93    
Maximum Humidity 100    
Minimum Humidity 77    
Precipitation  
Precipitation 0.69 in - - ()
Sea Level Pressure  
Sea Level Pressure 29.92 in    
Wind  
Wind Speed 2 mph (SSE)    
Max Wind Speed 15 mph    
Max Gust Speed 23 mph    
Visibility 6 miles    
Events Fog , Rain    
Averages and records for this station are not official NWS values.
T = Trace of Precipitation, MM = Missing Value Source: NWS Daily Summary

Daily Weather History Graph

Daily Weather History Graph

Search for Another Location

Airport or City:

Trip Planner

Search our weather history database for the weather conditions in past years. The results will help you decide how hot, cold, wet, or windy it might be!

Date:

Astronomy

Oct. 06, 2013 Rise Set
Actual Time 6:42 AM CDT 6:23 PM CDT
Civil Twilight 6:17 AM CDT 6:48 PM CDT
Nautical Twilight 5:49 AM CDT 7:16 PM CDT
Astronomical Twilight 5:21 AM CDT 7:44 PM CDT
Moon 8:17 AM CDT (10/6) 7:32 PM CDT (10/6)
Length of Visible Light 12h 30m
Length of Day
11h 41m
Waxing Crescent, 3% of the Moon is Illuminated
Oct 6
Waxing Crescent
Oct 11
First Quarter
Oct 18
Full
Oct 26
Last Quarter
Nov 3
New

Hourly Weather History & Observations

Time (CDT) Temp. Dew Point Humidity Pressure Visibility Wind Dir Wind Speed Gust Speed Precip Events Conditions
12:58 AM 72.0 °F 70.0 °F 93% 29.98 in 9.0 mi Calm Calm - N/A   Clear
1:58 AM 71.1 °F 68.0 °F 90% 29.96 in 7.0 mi Calm Calm - N/A   Clear
2:52 AM 69.8 °F 69.8 °F 100% 29.96 in 4.0 mi Calm Calm - N/A   Partly Cloudy
2:57 AM 70.0 °F 69.1 °F 97% 29.94 in 1.8 mi Calm Calm - N/A   Mostly Cloudy
3:15 AM 69.8 °F 69.8 °F 100% 29.95 in 0.8 mi Calm Calm - N/A   Mist
3:20 AM 69.8 °F 69.8 °F 100% 29.95 in 1.2 mi Calm Calm - N/A   Overcast
3:28 AM 69.8 °F 69.8 °F 100% 29.95 in 2.5 mi Calm Calm - N/A   Mostly Cloudy
3:32 AM 69.8 °F 69.8 °F 100% 29.95 in 4.0 mi Calm Calm - N/A   Mostly Cloudy
3:37 AM 69.8 °F 69.8 °F 100% 29.95 in 5.0 mi Calm Calm - N/A   Scattered Clouds
3:58 AM 70.0 °F 69.1 °F 97% 29.93 in 4.0 mi Calm Calm - N/A   Partly Cloudy
4:04 AM 69.8 °F 69.8 °F 100% 29.95 in 1.8 mi Calm Calm - N/A   Scattered Clouds
4:08 AM 69.8 °F 68.0 °F 94% 29.95 in 0.8 mi Calm Calm - N/A   Mist
4:58 AM 70.0 °F 69.1 °F 97% 29.94 in 0.8 mi East 3.5 mph - N/A   Mist
5:58 AM 69.1 °F 68.0 °F 96% 29.95 in 0.5 mi Calm Calm - N/A Fog Fog
6:10 AM 69.8 °F 68.0 °F 94% 29.97 in 1.2 mi Calm Calm - N/A   Overcast
6:30 AM 69.8 °F 68.0 °F 94% 29.96 in 2.0 mi East 3.5 mph - N/A   Overcast
6:42 AM 69.8 °F 68.0 °F 94% 29.97 in 1.8 mi Calm Calm - N/A   Overcast
6:58 AM 69.1 °F 68.0 °F 96% 29.96 in 1.5 mi Calm Calm - N/A   Overcast
7:05 AM 69.8 °F 68.0 °F 94% 29.96 in 2.5 mi Calm Calm - N/A   Mostly Cloudy
7:09 AM 69.8 °F 68.0 °F 94% 29.96 in 3.0 mi Calm Calm - N/A   Mostly Cloudy
7:13 AM 69.8 °F 68.0 °F 94% 29.96 in 4.0 mi Calm Calm - N/A   Scattered Clouds
7:37 AM 69.8 °F 69.8 °F 100% 29.96 in 5.0 mi ESE 3.5 mph - N/A   Mostly Cloudy
7:52 AM 71.6 °F 69.8 °F 94% 29.95 in 5.0 mi East 4.6 mph - N/A   Scattered Clouds
7:56 AM 71.6 °F 69.8 °F 94% 29.95 in 5.0 mi Variable 3.5 mph - N/A   Mostly Cloudy
7:58 AM 71.1 °F 70.0 °F 96% 29.94 in 5.0 mi ESE 4.6 mph - N/A   Mostly Cloudy
8:58 AM 73.0 °F 72.0 °F 96% 29.95 in 10.0 mi SE 8.1 mph - N/A   Overcast
9:24 AM 75.2 °F 71.6 °F 89% 29.96 in 10.0 mi SE 6.9 mph - N/A   Mostly Cloudy
9:30 AM 75.2 °F 71.6 °F 89% 29.96 in 10.0 mi SE 5.8 mph - N/A   Scattered Clouds
9:58 AM 75.9 °F 71.1 °F 85% 29.95 in 10.0 mi SSE 9.2 mph 16.1 mph N/A   Partly Cloudy
10:28 AM 75.2 °F 71.6 °F 89% 29.96 in 10.0 mi South 6.9 mph - 0.00 in Rain Light Rain
10:49 AM 75.2 °F 71.6 °F 89% 29.96 in 10.0 mi South 8.1 mph - 0.00 in Rain Light Rain
10:58 AM 75.9 °F 71.1 °F 85% 29.95 in 10.0 mi SSE 9.2 mph - 0.00 in Rain Light Rain
11:04 AM 75.2 °F 71.6 °F 89% 29.96 in 10.0 mi SSE 6.9 mph - 0.00 in Rain Light Rain
11:22 AM 77.0 °F 71.6 °F 83% 29.95 in 10.0 mi ESE 8.1 mph - 0.00 in Rain Light Rain
11:58 AM 78.1 °F 72.0 °F 81% 29.93 in 10.0 mi SE 6.9 mph - 0.00 in   Overcast
12:12 PM 78.8 °F 71.6 °F 78% 29.93 in 10.0 mi SSE 5.8 mph - 0.00 in Rain Light Rain
12:27 PM 78.8 °F 71.6 °F 78% 29.93 in 10.0 mi SE 4.6 mph - 0.00 in   Overcast
12:58 PM 79.0 °F 71.1 °F 77% 29.91 in 10.0 mi SSE 9.2 mph - 0.00 in   Overcast
1:58 PM 75.9 °F 71.6 °F 86% 29.89 in 10.0 mi ESE 3.5 mph - 0.00 in Rain Light Rain
2:54 PM 73.4 °F 71.6 °F 94% 29.90 in 1.5 mi SSW 8.1 mph - 0.11 in Rain Heavy Rain
2:58 PM 73.9 °F 72.0 °F 93% 29.89 in 0.8 mi SSW 12.7 mph - 0.21 in Rain Heavy Rain
3:02 PM 73.4 °F 71.6 °F 94% 29.90 in 0.8 mi South 15.0 mph 23.0 mph 0.06 in Rain Heavy Rain
3:07 PM 71.6 °F 69.8 °F 94% 29.90 in 1.0 mi South 9.2 mph 23.0 mph 0.11 in Rain Heavy Rain
3:22 PM 71.6 °F 69.8 °F 94% 29.89 in 2.0 mi SSW 5.8 mph - 0.18 in Rain Heavy Rain
3:36 PM 71.6 °F 69.8 °F 94% 29.90 in 3.0 mi SSW 4.6 mph - 0.21 in Rain Rain
3:58 PM 72.0 °F 70.0 °F 93% 29.88 in 6.0 mi South 3.5 mph - 0.23 in Rain Light Rain
4:58 PM 72.0 °F 70.0 °F 93% 29.88 in 4.0 mi Calm Calm - 0.06 in Rain Rain
5:12 PM 71.6 °F 71.6 °F 100% 29.89 in 2.5 mi SSE 3.5 mph - 0.04 in Rain Heavy Rain
5:23 PM 71.6 °F 71.6 °F 100% 29.89 in 3.0 mi SSE 3.5 mph - 0.06 in Rain Rain
5:58 PM 72.0 °F 71.1 °F 97% 29.85 in 5.0 mi ESE 4.6 mph - 0.12 in Rain Rain
6:38 PM 71.6 °F 69.8 °F 94% 29.85 in 9.0 mi SE 4.6 mph - 0.05 in Rain Rain
6:58 PM 72.0 °F 70.0 °F 93% 29.85 in 9.0 mi Calm Calm - 0.07 in Rain Light Rain
7:02 PM 71.6 °F 69.8 °F 94% 29.87 in 8.0 mi Calm Calm - 0.00 in Rain Rain
7:58 PM 72.0 °F 70.0 °F 93% 29.86 in 10.0 mi Calm Calm - 0.00 in   Clear
8:33 PM 71.6 °F 69.8 °F 94% 29.88 in 10.0 mi Calm Calm - N/A   Partly Cloudy
8:58 PM 72.0 °F 70.0 °F 93% 29.86 in 10.0 mi Calm Calm - N/A   Partly Cloudy
9:23 PM 71.6 °F 69.8 °F 94% 29.88 in 10.0 mi Calm Calm - N/A   Mostly Cloudy
9:58 PM 72.0 °F 70.0 °F 93% 29.86 in 9.0 mi Calm Calm - N/A   Overcast
10:58 PM 71.1 °F 70.0 °F 96% 29.86 in 8.0 mi Calm Calm - N/A   Overcast
11:50 PM 71.6 °F 69.8 °F 94% 29.87 in 4.0 mi Calm Calm - N/A   Overcast
11:58 PM 71.1 °F 70.0 °F 96% 29.86 in 3.0 mi Calm Calm - N/A   Overcast